DW8749 Weather Reports


Display with metric or nautical units.
time (UTC)temp
F
wind
direction
speed
MPH
gust
MPH
rain 1hr
in
rain 24hr
in
rain mn
in
humidity
%
barometer
mb
20260831132008 78 109 2.0 7.0 0.00 0.00 0.00 58 1015.0
20260831131514 78 130 3.0 7.0 0.00 0.00 0.00 58 1015.1
20260831131012 78 140 3.0 5.0 0.00 0.00 0.00 58 1015.1
20260831130513 78 143 1.0 6.0 0.00 0.00 0.00 57 1015.1
20260831130026 78 144 3.0 7.0 0.00 0.00 0.00 57 1014.9
20260831125516 78 137 4.0 7.0 0.00 0.00 0.00 58 1014.9
20260831125020 78 114 1.0 3.0 0.00 0.00 0.00 62 1014.8
20260831124529 78 115 0.0 2.0 0.00 0.00 0.00 64 1014.9
20260831124022 78 50 0.0 0.0 0.00 0.00 0.00 64 1014.9
20260831123518 78 50 0.0 1.0 0.00 0.00 0.00 64 1014.9
20260831123031 78 345 0.0 2.0 0.00 0.00 0.00 64 1015.0
20260831122508 78 345 1.0 3.0 0.00 0.00 0.00 65 1015.1
20260831122011 78 333 1.0 4.0 0.00 0.00 0.00 64 1015.0
20260831121519 78 360 2.0 4.0 0.00 0.00 0.00 65 1015.0
20260831121013 77 338 2.0 3.0 0.00 0.00 0.00 64 1015.1
20260831120512 77 9 1.0 3.0 0.00 0.00 0.00 64 1015.1
20260831120032 77 323 2.0 5.0 0.00 0.00 0.00 64 1015.2
20260831115518 77 336 2.0 5.0 0.00 0.00 0.00 64 1015.1
20260831115019 77 327 2.0 4.0 0.00 0.00 0.00 64 1015.1
20260831114535 76 318 3.0 4.0 0.00 0.00 0.00 63 1015.0
20260831114016 76 18 0.0 1.0 0.00 0.00 0.00 62 1015.1
20260831113518 76 129 0.0 0.0 0.00 0.00 0.00 61 1015.1
20260831113034 76 129 0.0 0.0 0.00 0.00 0.00 61 1015.1
20260831112510 77 129 0.0 0.0 0.00 0.00 0.00 61 1015.1
20260831112011 77 129 0.0 0.0 0.00 0.00 0.00 60 1015.1
20260831111517 77 129 0.0 0.0 0.00 0.00 0.00 61 1015.0
20260831111013 77 129 0.0 0.0 0.00 0.00 0.00 60 1015.0
20260831110518 77 145 0.0 0.0 0.00 0.00 0.00 60 1015.1
20260831110033 77 145 0.0 0.0 0.00 0.00 0.00 59 1015.1
20260831105517 77 145 0.0 0.0 0.00 0.00 0.00 59 1015.1
20260831105015 78 145 0.0 0.0 0.00 0.00 0.00 58 1015.1
20260831104533 78 145 0.0 0.0 0.00 0.00 0.00 58 1015.1
20260831104016 78 145 0.0 2.0 0.00 0.00 0.00 58 1015.2
20260831103516 78 145 0.0 8.0 0.00 0.00 0.00 58 1015.2
20260831103018 78 142 0.0 11.0 0.00 0.00 0.00 58 1015.2
20260831102511 78 315 2.0 11.0 0.00 0.00 0.00 58 1015.4
20260831102011 78 311 6.0 11.0 0.00 0.00 0.00 57 1015.3
20260831101531 78 151 0.0 3.0 0.00 0.00 0.00 57 1015.0
20260831101013 78 147 2.0 3.0 0.00 0.00 0.00 57 1015.0
20260831100513 79 153 0.0 2.0 0.00 0.00 0.00 56 1015.1
20260831100030 79 273 0.0 5.0 0.00 0.00 0.00 56 1015.1
20260831095519 79 273 1.0 9.0 0.00 0.00 0.00 56 1015.2
20260831095024 79 314 4.0 9.0 0.00 0.00 0.00 56 1015.2
20260831094533 79 313 6.0 9.0 0.00 0.00 0.00 55 1015.0
20260831094017 79 263 0.0 6.0 0.00 0.00 0.00 55 1014.4
20260831093516 79 180 2.0 6.0 0.00 0.00 0.00 55 1014.2
20260831093024 79 185 3.0 6.0 0.00 0.00 0.00 55 1014.1
20260831092514 79 235 1.0 5.0 0.00 0.00 0.00 55 1014.1
20260831092017 79 178 1.0 5.0 0.00 0.00 0.00 55 1013.9
20260831091528 79 170 2.0 4.0 0.00 0.00 0.00 55 1013.8
20260831091020 79 182 1.0 5.0 0.00 0.00 0.00 55 1013.8
20260831090519 79 172 2.0 5.0 0.00 0.00 0.00 55 1013.7
20260831090040 79 171 3.0 6.0 0.00 0.00 0.00 55 1013.7
20260831085518 79 184 2.0 6.0 0.00 0.00 0.00 55 1013.7
20260831085015 80 164 2.0 6.0 0.00 0.00 0.00 55 1013.5
20260831084515 80 198 2.0 6.0 0.00 0.00 0.00 54 1013.3
20260831084011 81 185 2.0 6.0 0.00 0.00 0.00 54 1013.3
20260831083512 81 165 3.0 7.0 0.00 0.00 0.00 53 1013.3
20260831083027 81 190 2.0 7.0 0.00 0.00 0.00 52 1013.2
20260831082514 81 208 3.0 6.0 0.00 0.00 0.00 52 1013.2
20260831082003 81 194 3.0 7.0 0.00 0.00 0.00 52 1013.2
20260831081506 81 188 4.0 7.0 0.00 0.00 0.00 52 1013.1
20260831081006 81 175 3.0 6.0 0.00 0.00 0.00 52 1013.1
20260831080505 81 202 1.0 7.0 0.00 0.00 0.00 52 1013.2
20260831080012 81 207 3.0 7.0 0.00 0.00 0.00 52 1013.0
20260831075509 81 205 2.0 6.0 0.00 0.00 0.00 53 1013.1
20260831075010 81 213 3.0 6.0 0.00 0.00 0.00 53 1013.2
20260831074518 81 200 3.0 5.0 0.00 0.00 0.00 54 1013.1
20260831074012 81 201 2.0 6.0 0.00 0.00 0.00 53 1013.1
20260831073521 81 192 3.0 6.0 0.00 0.00 0.00 53 1013.0
20260831073031 81 196 2.0 5.0 0.00 0.00 0.00 53 1013.2
20260831072515 81 234 2.0 5.0 0.00 0.00 0.00 53 1013.3
20260831072002 81 250 2.0 5.0 0.00 0.00 0.00 53 1013.1
20260831071506 81 172 2.0 5.0 0.00 0.00 0.00 53 1013.0
20260831071005 81 204 1.0 6.0 0.00 0.00 0.00 53 1013.0
20260831070509 81 219 1.0 6.0 0.00 0.00 0.00 54 1013.0
20260831070026 81 173 3.0 6.0 0.00 0.00 0.00 54 1013.1
20260831065513 81 157 2.0 4.0 0.00 0.00 0.00 54 1013.1
20260831065018 81 197 0.0 3.0 0.00 0.00 0.00 54 1013.2
20260831064526 81 195 1.0 5.0 0.00 0.00 0.00 53 1013.1
20260831064014 81 225 1.0 6.0 0.00 0.00 0.00 53 1013.3
20260831063516 81 252 1.0 8.0 0.00 0.00 0.00 53 1013.3
20260831063030 81 272 3.0 8.0 0.00 0.00 0.00 53 1013.4
20260831062503 82 302 2.0 5.0 0.00 0.00 0.00 53 1013.3
20260831062006 82 251 1.0 2.0 0.00 0.00 0.00 52 1013.2
20260831061512 82 257 0.0 2.0 0.00 0.00 0.00 52 1013.1
20260831061009 83 290 0.0 2.0 0.00 0.00 0.00 51 1013.1
20260831060511 83 290 1.0 3.0 0.00 0.00 0.00 51 1013.1
20260831060020 83 290 1.0 3.0 0.00 0.00 0.00 51 1013.0
20260831055513 83 293 1.0 4.0 0.00 0.00 0.00 50 1013.2
20260831055014 83 269 1.0 4.0 0.00 0.00 0.00 49 1013.2
20260831054527 83 260 1.0 2.0 0.00 0.00 0.00 49 1013.2
20260831054017 84 253 1.0 2.0 0.00 0.00 0.00 49 1013.1
20260831053514 84 278 1.0 4.0 0.00 0.00 0.00 48 1013.0
20260831053008 85 306 1.0 4.0 0.00 0.00 0.00 47 1012.9
20260831052504 85 263 1.0 3.0 0.00 0.00 0.00 46 1012.9
20260831052008 85 233 1.0 7.0 0.00 0.00 0.00 46 1012.7
20260831051524 85 208 1.0 11.0 0.00 0.00 0.00 45 1012.5
20260831051009 86 167 2.0 11.0 0.00 0.00 0.00 45 1012.4
20260831050510 86 194 2.0 8.0 0.00 0.00 0.00 45 1012.3
20260831050023 86 183 4.0 7.0 0.00 0.00 0.00 45 1012.1
20260831045512 86 182 3.0 9.0 0.00 0.00 0.00 45 1011.9
20260831045014 86 198 4.0 10.0 0.00 0.00 0.00 45 1011.9
20260831044529 86 192 4.0 15.0 0.00 0.00 0.00 44 1011.7
20260831044015 86 183 6.0 15.0 0.00 0.00 0.00 44 1011.6
20260831043515 86 177 5.0 11.0 0.00 0.00 0.00 44 1011.3
20260831043008 86 168 6.0 12.0 0.00 0.00 0.00 44 1011.3
20260831042509 86 194 5.0 13.0 0.00 0.00 0.00 44 1011.1
20260831042009 86 165 5.0 13.0 0.00 0.00 0.00 44 1011.0
20260831041525 86 360 5.0 8.0 0.00 0.00 0.00 43 1010.9
20260831041011 87 168 4.0 8.0 0.00 0.00 0.00 43 1010.8
20260831040513 87 159 4.0 8.0 0.00 0.00 0.00 43 1010.8
20260831040027 87 151 4.0 8.0 0.00 0.00 0.00 42 1010.7
20260831035517 87 165 4.0 8.0 0.00 0.00 0.00 43 1010.8
20260831035016 87 165 4.0 8.0 0.00 0.00 0.00 43 1010.9
20260831034530 87 180 4.0 10.0 0.00 0.00 0.00 43 1010.8
20260831034017 87 165 4.0 10.0 0.00 0.00 0.00 43 1010.8
20260831033507 88 168 3.0 7.0 0.00 0.00 0.00 43 1010.8
20260831033019 88 192 3.0 7.0 0.00 0.00 0.00 42 1010.8
20260831032511 88 169 4.0 10.0 0.00 0.00 0.00 42 1010.7
20260831032012 88 168 4.0 10.0 0.00 0.00 0.00 42 1010.7
20260831031529 88 169 5.0 7.0 0.00 0.00 0.00 42 1010.7
20260831031012 88 209 4.0 8.0 0.00 0.00 0.00 42 1010.7
20260831030515 89 183 3.0 8.0 0.00 0.00 0.00 41 1010.6
20260831030031 89 163 3.0 7.0 0.00 0.00 0.00 41 1010.6
20260831025518 89 182 4.0 8.0 0.00 0.00 0.00 41 1010.6
20260831025017 89 180 3.0 8.0 0.00 0.00 0.00 41 1010.5
20260831024604 89 167 4.0 7.0 0.00 0.00 0.00 40 1010.5
20260831024017 90 180 3.0 8.0 0.00 0.00 0.00 40 1010.4
20260831023508 90 164 4.0 7.0 0.00 0.00 0.00 39 1010.4
20260831023012 90 167 4.0 9.0 0.00 0.00 0.00 39 1010.5
20260831022510 91 190 4.0 8.0 0.00 0.00 0.00 38 1010.4
20260831022013 91 171 3.0 8.0 0.00 0.00 0.00 38 1010.1
20260831021524 91 178 4.0 8.0 0.00 0.00 0.00 38 1010.1
20260831021016 92 160 4.0 7.0 0.00 0.00 0.00 37 1010.0
20260831020515 92 213 3.0 8.0 0.00 0.00 0.00 37 1009.9
20260831020030 92 169 3.0 9.0 0.00 0.00 0.00 37 1009.8
20260831015521 93 190 3.0 9.0 0.00 0.00 0.00 36 1009.8
20260831015018 93 180 4.0 7.0 0.00 0.00 0.00 36 1009.8
20260831014538 93 212 3.0 6.0 0.00 0.00 0.00 36 1009.7
20260831014009 93 182 3.0 9.0 0.00 0.00 0.00 36 1009.8
20260831013508 94 164 4.0 9.0 0.00 0.00 0.00 35 1009.6
20260831013022 94 196 4.0 7.0 0.00 0.00 0.00 35 1009.6
20260831012512 95 182 4.0 9.0 0.00 0.00 0.00 34 1009.5
20260831012016 95 165 4.0 9.0 0.00 0.00 0.00 34 1009.4
20260831011527 96 161 5.0 10.0 0.00 0.00 0.00 33 1009.4
20260831011015 96 184 5.0 10.0 0.00 0.00 0.00 33 1009.4
20260831010517 97 159 4.0 9.0 0.00 0.00 0.00 32 1009.4
20260831010033 97 187 5.0 12.0 0.00 0.00 0.00 31 1009.5
20260831005519 97 185 6.0 12.0 0.00 0.00 0.00 31 1009.5
20260831005018 98 360 5.0 11.0 0.00 0.00 0.00 31 1009.3
20260831004515 98 202 5.0 10.0 0.00 0.00 0.00 30 1009.3
20260831004016 99 179 5.0 10.0 0.00 0.00 0.00 30 1009.2
20260831003512 99 223 5.0 12.0 0.00 0.00 0.00 30 1009.2
20260831003023 99 194 5.0 13.0 0.00 0.00 0.00 29 1009.3
20260831002517 100 229 8.0 17.0 0.00 0.00 0.00 29 1009.3
20260831002017 100 198 9.0 17.0 0.00 0.00 0.00 29 1009.3
20260831001528 100 201 5.0 14.0 0.00 0.00 0.00 29 1009.3
20260831001016 101 209 7.0 15.0 0.00 0.00 0.00 28 1009.2
20260831000519 101 211 7.0 16.0 0.00 0.00 0.00 28 1009.2
20260831000034 101 170 8.0 18.0 0.00 0.00 0.00 27 1009.3
20260830235516 101 220 9.0 18.0 0.00 0.00 0.00 27 1009.3
20260830235016 102 198 9.0 18.0 0.00 0.00 0.00 27 1009.3
20260830234515 102 360 7.0 14.0 0.00 0.00 0.00 27 1009.1
20260830234012 102 197 9.0 15.0 0.00 0.00 0.00 26 1009.1
20260830233511 102 360 7.0 19.0 0.00 0.00 0.00 27 1009.0
20260830233027 103 189 9.0 19.0 0.00 0.00 0.00 26 1009.0
20260830232517 103 169 7.0 15.0 0.00 0.00 0.00 26 1009.1
20260830232018 103 209 8.0 22.0 0.00 0.00 0.00 27 1009.1
20260830231533 103 186 11.0 22.0 0.00 0.00 0.00 26 1009.0
20260830231019 103 208 10.0 22.0 0.00 0.00 0.00 26 1008.9
20260830230502 103 197 11.0 21.0 0.00 0.00 0.00 26 1008.9
20260830230004 103 209 8.0 21.0 0.00 0.00 0.00 27 1008.8
20260830225503 104 172 10.0 22.0 0.00 0.00 0.00 26 1008.8
20260830225004 104 209 9.0 22.0 0.00 0.00 0.00 26 1008.8
20260830224503 104 235 11.0 20.0 0.00 0.00 0.00 26 1008.8
20260830224002 104 178 9.0 19.0 0.00 0.00 0.00 26 1008.8
20260830223506 104 210 9.0 19.0 0.00 0.00 0.00 26 1008.8
20260830223003 104 202 9.0 18.0 0.00 0.00 0.00 25 1008.8
20260830222506 104 202 10.0 17.0 0.00 0.00 0.00 25 1008.8
20260830222003 105 186 9.0 17.0 0.00 0.00 0.00 26 1008.7
20260830221505 105 238 9.0 16.0 0.00 0.00 0.00 25 1008.7
20260830221004 105 217 9.0 14.0 0.00 0.00 0.00 25 1008.9
20260830220504 105 235 9.0 18.0 0.00 0.00 0.00 25 1008.9
20260830220004 104 175 10.0 22.0 0.00 0.00 0.00 26 1009.0
20260830215504 105 188 10.0 22.0 0.00 0.00 0.00 25 1009.1
20260830215003 105 221 7.0 15.0 0.00 0.00 0.00 25 1009.1
20260830214504 105 186 8.0 16.0 0.00 0.00 0.00 25 1009.0
20260830214002 105 250 6.0 23.0 0.00 0.00 0.00 26 1009.0
20260830213503 105 265 9.0 23.0 0.00 0.00 0.00 25 1009.1
20260830213003 105 223 10.0 25.0 0.00 0.00 0.00 26 1009.1
20260830212503 105 251 11.0 25.0 0.00 0.00 0.00 25 1009.3
20260830212003 105 272 10.0 17.0 0.00 0.00 0.00 26 1009.3
20260830211504 105 229 6.0 15.0 0.00 0.00 0.00 26 1009.4
20260830211004 104 301 4.0 14.0 0.00 0.00 0.00 27 1009.3
20260830210504 104 192 7.0 13.0 0.00 0.00 0.00 26 1009.3
20260830210004 104 264 3.0 14.0 0.00 0.00 0.00 27 1009.3
20260830205505 104 198 7.0 20.0 0.00 0.00 0.00 28 1009.4
20260830205003 104 174 8.0 20.0 0.00 0.00 0.00 27 1009.5
20260830204503 103 221 8.0 17.0 0.00 0.00 0.00 27 1009.7
20260830204004 103 219 10.0 17.0 0.00 0.00 0.00 27 1009.8
20260830203504 103 220 7.0 18.0 0.00 0.00 0.00 27 1009.8
20260830203014 103 181 7.0 23.0 0.00 0.00 0.00 27 1009.8
20260830202503 102 180 12.0 23.0 0.00 0.00 0.00 28 1009.7
20260830202003 103 134 11.0 22.0 0.00 0.00 0.00 28 1009.8
20260830201503 102 197 8.0 22.0 0.00 0.00 0.00 28 1009.8
20260830201003 102 191 8.0 22.0 0.00 0.00 0.00 28 1009.9
20260830200503 102 209 11.0 20.0 0.00 0.00 0.00 29 1010.0
20260830200004 102 175 7.0 16.0 0.00 0.00 0.00 29 1010.1
20260830195505 102 215 7.0 20.0 0.00 0.00 0.00 29 1010.2
20260830195004 102 192 10.0 20.0 0.00 0.00 0.00 29 1010.2
20260830194504 102 195 11.0 21.0 0.00 0.00 0.00 28 1010.1
20260830194003 102 164 7.0 22.0 0.00 0.00 0.00 29 1010.1
20260830193503 102 186 10.0 22.0 0.00 0.00 0.00 29 1010.2
20260830193004 101 212 6.0 17.0 0.00 0.00 0.00 30 1010.4
20260830192503 101 187 8.0 17.0 0.00 0.00 0.00 30 1010.4
20260830192005 101 213 6.0 17.0 0.00 0.00 0.00 30 1010.5
20260830191506 101 240 5.0 14.0 0.00 0.00 0.00 30 1010.5
20260830191005 100 253 4.0 12.0 0.00 0.00 0.00 31 1010.6
20260830190505 100 190 5.0 17.0 0.00 0.00 0.00 31 1010.7
20260830190009 100 176 8.0 18.0 0.00 0.00 0.00 30 1010.7
20260830185504 100 229 8.0 18.0 0.00 0.00 0.00 30 1010.7
20260830185002 100 211 8.0 14.0 0.00 0.00 0.00 30 1010.9
20260830184506 100 208 5.0 17.0 0.00 0.00 0.00 32 1010.7
20260830184005 100 190 8.0 17.0 0.00 0.00 0.00 32 1010.9
20260830183505 100 191 6.0 18.0 0.00 0.00 0.00 32 1010.9
20260830183003 100 208 10.0 18.0 0.00 0.00 0.00 31 1011.1
20260830182504 99 222 5.0 15.0 0.00 0.00 0.00 33 1011.0
20260830182004 99 237 7.0 15.0 0.00 0.00 0.00 33 1011.2
20260830181504 99 188 4.0 14.0 0.00 0.00 0.00 33 1011.1
20260830181003 99 187 4.0 15.0 0.00 0.00 0.00 34 1011.2
20260830180503 99 192 7.0 15.0 0.00 0.00 0.00 32 1011.2
20260830180007 98 224 6.0 17.0 0.00 0.00 0.00 33 1011.3
20260830175504 98 222 5.0 17.0 0.00 0.00 0.00 33 1011.5
20260830175006 98 182 4.0 15.0 0.00 0.00 0.00 32 1011.6
20260830174507 98 211 8.0 17.0 0.00 0.00 0.00 33 1011.7
20260830174003 98 178 7.0 17.0 0.00 0.00 0.00 33 1011.7
20260830173507 98 194 7.0 20.0 0.00 0.00 0.00 33 1011.7
20260830173008 98 231 8.0 20.0 0.00 0.00 0.00 33 1011.8
20260830172503 98 202 6.0 15.0 0.00 0.00 0.00 33 1011.8
20260830172003 98 254 9.0 15.0 0.00 0.00 0.00 33 1011.8
20260830171507 98 261 8.0 15.0 0.00 0.00 0.00 34 1011.9
20260830171006 97 297 7.0 15.0 0.00 0.00 0.00 33 1011.9
20260830170504 97 236 7.0 15.0 0.00 0.00 0.00 34 1011.9
20260830170004 97 246 7.0 15.0 0.00 0.00 0.00 34 1011.8
20260830165508 97 222 8.0 17.0 0.00 0.00 0.00 34 1011.8
20260830165006 96 277 6.0 17.0 0.00 0.00 0.00 35 1011.8
20260830164522 95 236 7.0 19.0 0.00 0.00 0.00 35 1011.7
20260830164006 95 195 9.0 18.0 0.00 0.00 0.00 35 1011.7
20260830163506 95 202 10.0 22.0 0.00 0.00 0.00 35 1011.6
20260830163010 95 209 10.0 18.0 0.00 0.00 0.00 36 1011.6
20260830162506 95 176 6.0 16.0 0.00 0.00 0.00 36 1011.6
20260830162006 94 223 8.0 16.0 0.00 0.00 0.00 36 1011.6
20260830161508 94 201 6.0 18.0 0.00 0.00 0.00 36 1011.6
20260830161007 93 248 8.0 17.0 0.00 0.00 0.00 37 1011.6
20260830160507 93 238 8.0 17.0 0.00 0.00 0.00 36 1011.5
20260830160014 93 213 9.0 16.0 0.00 0.00 0.00 37 1011.6
20260830155509 93 235 7.0 16.0 0.00 0.00 0.00 38 1011.5
20260830155007 92 180 8.0 15.0 0.00 0.00 0.00 38 1011.4
20260830154509 92 169 4.0 18.0 0.00 0.00 0.00 40 1011.4
20260830154005 91 161 9.0 18.0 0.00 0.00 0.00 39 1011.3
20260830153509 91 188 8.0 18.0 0.00 0.00 0.00 40 1011.3
20260830153011 90 209 9.0 18.0 0.00 0.00 0.00 40 1011.3
20260830152510 89 212 8.0 18.0 0.00 0.00 0.00 41 1011.3
20260830152008 89 221 9.0 18.0 0.00 0.00 0.00 42 1011.3
20260830151521 88 241 8.0 16.0 0.00 0.00 0.00 43 1011.4
20260830151008 87 200 6.0 16.0 0.00 0.00 0.00 44 1011.3
20260830150510 87 194 7.0 21.0 0.00 0.00 0.00 44 1011.3
20260830150011 86 239 8.0 21.0 0.00 0.00 0.00 45 1011.3
20260830145508 86 197 8.0 20.0 0.00 0.00 0.00 46 1011.2
20260830145007 85 163 8.0 20.0 0.00 0.00 0.00 46 1011.2
20260830144510 85 184 11.0 19.0 0.00 0.00 0.00 46 1011.2
20260830144009 85 202 9.0 19.0 0.00 0.00 0.00 46 1011.2
20260830143508 84 198 7.0 19.0 0.00 0.00 0.00 47 1011.2
20260830143013 84 180 10.0 25.0 0.00 0.00 0.00 47 1011.2
20260830142508 84 219 11.0 25.0 0.00 0.00 0.00 47 1011.3
20260830142009 83 199 10.0 19.0 0.00 0.00 0.00 47 1011.2
20260830141512 83 200 12.0 19.0 0.00 0.00 0.00 47 1011.2
20260830141009 83 180 10.0 20.0 0.00 0.00 0.00 48 1011.2
20260830140508 82 202 10.0 20.0 0.00 0.00 0.00 48 1011.2
20260830140013 82 198 9.0 19.0 0.00 0.00 0.00 49 1011.3
20260830135510 82 183 10.0 21.0 0.00 0.00 0.00 49 1011.4
20260830135010 82 190 8.0 22.0 0.00 0.00 0.00 49 1011.5
20260830134515 81 219 8.0 22.0 0.00 0.00 0.00 49 1011.5
20260830134008 81 173 9.0 17.0 0.00 0.00 0.00 50 1011.6
20260830133508 80 160 9.0 17.0 0.00 0.00 0.00 50 1011.5
20260830133011 80 144 8.0 17.0 0.00 0.00 0.00 51 1011.5
20260830132505 80 193 7.0 19.0 0.00 0.00 0.00 51 1011.4